Terug naar catalogus

DUPLEX

ActiefWetenschapVLEO
NORAD 66906·PAYLOAD·🇺🇸 United States

Gelanceerd Nov 20, 1998 vanaf Baikonur Cosmodrome

Loading…

Volgende Passages (komende 24 uur)

TLE

VersSource: Space-Track

Epoch: Sep 14, 2026, 08:01 UTC

1 66906U 98067XS  26257.33416809  .00045369  00000-0  37945-3 0  9991
2 66906  51.6251 197.0423 0004279 136.8782 223.2551 15.69525271 44621

Volg DUPLEX in realtime met AllMySat

Download on the App Store